Theta_e
328 331 330 332 340 344 345 348 351 352 352 349 345 344 343 345 342 350 347 335 338 349 345 339 334 338 337 335 334 334 333 333 334 333 331 332 331 331 331 332 337 340 339 332 324 323 323 324 324
329 329 330 333 336 339 345 346 351 350 350 348 345 345 346 346 346 349 346 334 343 349 345 341 333 337 337 334 333 333 334 334 332 331 331 332 331 331 332 337 340 337 331 326 324 324 325 326 328
328 325 330 332 333 337 341 347 349 349 347 348 349 346 341 339 344 348 343 335 346 349 343 343 333 337 337 335 335 336 335 334 333 333 332 331 332 332 335 339 337 331 327 326 325 325 326 327 328
328 328 328 330 331 339 338 342 345 347 347 346 346 343 340 342 345 345 339 338 346 348 344 345 334 337 337 336 336 337 336 335 333 332 331 331 332 332 337 338 333 328 326 326 326 326 326 326 328
324 329 330 330 330 331 343 343 344 345 345 345 345 346 344 346 348 345 344 342 345 346 345 344 333 334 335 335 336 337 336 334 333 333 332 332 332 332 337 336 330 326 324 325 325 325 326 327 329
329 330 333 330 330 329 335 343 344 343 343 346 346 345 346 345 348 348 346 344 345 344 345 344 335 333 335 335 335 336 336 336 336 334 332 332 331 331 335 336 330 326 325 326 326 326 327 327 329
328 333 335 330 328 329 331 338 342 343 343 345 343 344 347 344 347 346 342 341 342 343 345 348 341 339 335 336 336 336 337 337 336 334 332 332 331 331 333 334 330 328 328 328 328 327 327 327 328
327 331 333 331 329 329 328 334 336 341 341 345 344 346 349 345 347 343 340 339 339 341 344 347 346 342 342 343 337 337 336 336 336 334 332 331 329 330 331 332 332 331 330 330 330 331 331 331 331
323 329 333 333 330 328 330 331 336 341 342 343 344 343 345 345 345 340 338 337 338 341 342 344 344 343 341 340 343 338 337 337 336 335 332 332 335 338 340 337 339 333 331 331 331 331 330 330 330
323 329 332 332 330 328 326 328 330 340 344 344 344 345 345 344 343 338 337 336 337 339 341 343 344 343 342 341 343 344 344 341 341 339 340 337 337 339 337 339 335 333 333 333 332 331 330 330 331
323 326 329 329 328 326 326 327 331 335 337 342 345 347 345 343 342 336 335 335 336 337 338 340 343 344 342 341 342 342 342 341 342 342 341 339 339 338 334 338 336 336 333 334 332 332 331 328 327
321 323 324 328 327 325 325 327 330 331 335 343 343 346 345 344 341 338 336 335 335 336 338 339 342 345 343 341 341 341 340 340 340 340 342 340 338 337 337 336 335 335 333 333 331 329 328 328 326
320 322 323 325 325 325 325 326 328 330 335 340 342 345 346 345 340 338 337 336 337 338 341 340 340 343 343 344 341 340 340 339 338 340 340 337 336 338 337 336 334 333 331 330 330 329 326 322 323
322 322 323 325 326 326 325 326 331 330 332 338 342 344 346 347 343 340 340 340 340 341 343 342 342 343 342 343 341 340 340 339 340 338 337 338 336 338 336 335 333 331 331 329 324 321 319 322 322
322 323 323 325 326 325 327 327 330 330 335 336 340 343 345 346 344 343 343 343 344 346 347 347 344 343 343 342 342 340 339 338 338 338 339 336 337 337 335 333 333 332 327 321 319 320 323 322 321
322 322 323 325 325 328 332 329 328 328 330 332 335 339 343 344 345 344 344 345 346 348 350 351 347 344 344 341 341 339 339 339 338 338 337 336 336 335 334 333 332 324 321 319 321 323 322 320 318
323 322 322 325 325 329 332 328 328 328 328 330 331 333 339 344 344 346 345 346 347 349 350 351 351 346 345 344 341 341 340 340 339 338 335 335 333 332 333 331 326 321 319 322 322 322 320 318 317
322 322 322 323 326 326 326 326 327 327 328 329 329 330 333 340 343 344 346 344 344 346 349 350 350 350 348 345 343 340 340 339 338 337 335 334 332 331 331 325 321 319 322 324 322 320 318 317 315
323 323 323 323 324 325 325 326 327 327 328 332 331 329 333 339 342 344 346 346 345 343 342 346 350 351 349 345 342 340 339 338 337 336 333 332 331 329 325 322 320 323 323 322 320 318 316 314 313
323 323 323 323 323 325 325 326 327 327 330 336 334 333 335 339 343 347 349 349 348 347 345 345 346 348 348 345 342 341 341 339 338 335 333 331 328 325 323 322 325 324 322 321 320 318 315 312 312
323 323 323 322 322 324 326 326 326 328 337 340 339 336 338 339 345 348 348 349 349 348 347 346 346 347 346 344 344 341 339 338 336 334 331 328 324 323 325 324 323 322 320 318 317 314 313 312 312
322 322 322 323 325 324 327 327 328 328 330 336 339 338 337 339 341 346 347 348 348 348 347 347 346 346 345 344 342 341 340 339 338 336 331 326 324 324 322 321 319 317 315 314 311 310 312 312 312
323 322 322 325 326 327 326 327 326 329 328 329 338 342 341 341 342 346 346 346 346 345 346 346 345 344 343 342 342 341 341 341 336 329 327 326 323 320 316 315 314 313 311 311 312 312 313 312 312
323 323 324 325 325 328 325 327 327 327 328 330 339 342 344 344 344 345 345 342 344 345 345 345 345 344 343 342 342 342 340 335 333 330 327 323 319 316 314 312 312 312 312 312 312 312 312 311 309
324 325 326 327 326 326 327 327 327 327 327 328 330 334 340 344 344 346 343 342 344 344 344 344 344 342 342 341 341 340 336 333 330 327 323 318 317 315 314 311 311 310 311 311 311 310 309 309 309
325 325 326 327 325 326 328 326 327 327 328 332 335 338 339 344 344 345 343 343 344 344 344 342 342 340 338 337 334 331 330 327 324 319 318 316 314 314 312 311 311 311 311 310 310 309 309 308 309
323 325 324 328 328 328 326 326 327 327 327 329 333 338 342 344 344 345 343 342 342 343 341 340 339 336 333 331 328 326 323 320 319 318 316 315 314 312 312 311 311 311 311 311 310 310 309 309 309
321 325 326 326 328 330 327 327 328 327 327 328 329 334 341 345 345 346 344 341 342 340 339 337 335 333 330 327 325 322 320 319 318 316 316 315 314 313 311 312 311 311 311 311 311 310 310 310 310
323 324 325 327 330 330 331 329 328 328 329 329 329 330 338 346 346 345 344 340 341 339 336 335 332 329 327 324 321 320 319 318 316 317 316 315 314 313 312 312 311 311 311 311 311 311 311 310 310
324 325 325 328 327 329 328 328 327 327 327 328 329 330 339 344 345 344 342 340 340 337 334 332 329 326 324 321 320 320 319 317 318 317 316 314 314 313 313 312 311 311 310 311 311 311 310 310 310
Wind_Speed
2 3 4 6 7 6 5 6 4 4 4 1 1 2 3 6 4 4 11 17 20 25 24 25 27 26 25 23 22 21 19 18 16 14 13 12 10 10 9 8 8 7 7 7 8 8 8 8 7
4 3 6 4 7 6 7 5 2 1 4 1 4 3 3 1 1 8 16 16 24 24 23 23 27 26 24 23 21 20 19 17 15 13 12 11 10 9 8 7 7 7 7 7 7 6 6 6 5
5 6 5 5 3 6 4 5 1 4 2 4 2 3 2 2 2 11 14 23 24 23 23 22 26 25 23 21 20 19 17 15 13 11 10 9 8 8 7 6 6 6 6 6 5 4 4 4 4
5 7 5 5 5 7 1 1 2 2 4 3 6 3 3 4 6 7 20 23 24 23 22 22 25 24 22 20 19 17 15 13 11 10 10 9 8 7 6 5 5 5 4 3 3 2 2 2 4
8 5 7 2 5 2 2 3 4 2 4 4 3 1 2 7 8 15 17 21 23 22 21 20 25 23 22 20 19 17 15 13 11 9 8 8 7 6 5 5 5 5 4 2 2 1 1 3 4
7 4 9 3 4 4 1 3 4 4 2 3 3 3 5 7 9 13 16 19 18 19 19 20 23 22 21 19 18 17 14 12 10 8 7 6 6 6 5 5 4 4 3 3 3 3 4 6 7
12 8 8 5 2 1 5 1 8 5 4 3 3 4 4 9 11 13 16 17 16 17 19 18 21 21 21 19 17 16 14 12 10 9 8 7 6 6 6 6 6 6 5 5 4 5 7 8 10
8 7 9 4 3 2 3 2 3 4 2 3 4 2 5 13 15 15 17 17 17 18 18 19 19 18 17 16 17 15 14 12 10 9 8 8 8 8 8 7 7 7 6 6 7 8 9 10 12
5 9 11 5 5 3 2 5 6 2 5 7 6 2 3 18 18 17 17 18 18 16 16 16 17 17 17 16 15 16 14 13 11 9 9 8 7 7 8 10 10 7 7 8 8 9 9 11 13
10 11 13 3 6 6 6 6 6 4 7 9 7 3 12 20 19 18 18 17 18 18 18 16 16 15 14 12 11 12 11 10 9 9 9 9 9 8 8 7 8 8 8 8 9 10 10 10 12
11 14 9 7 7 7 11 10 0 6 9 7 9 11 16 19 17 17 17 18 19 18 17 17 17 16 15 13 12 12 12 11 11 10 10 8 8 7 7 7 5 4 5 5 6 9 9 10 12
10 13 11 10 4 9 11 9 11 9 5 3 5 13 16 17 16 16 16 15 16 16 15 14 14 14 14 12 12 11 11 11 10 10 9 8 7 7 6 6 5 4 5 6 7 9 11 11 12
14 11 8 11 12 11 12 13 14 14 5 6 7 12 16 15 17 17 15 15 14 14 16 16 16 16 15 14 11 11 11 10 9 9 8 8 8 7 5 4 3 4 5 6 9 11 11 14 13
0 11 12 11 12 10 10 11 4 4 6 15 10 13 15 17 19 19 17 15 15 14 14 15 15 15 15 15 14 12 11 10 10 9 8 8 7 7 5 3 3 3 5 8 7 11 13 12 14
8 10 14 15 13 9 6 13 14 10 3 10 15 13 15 16 20 21 22 19 17 16 14 15 16 16 16 15 14 13 11 11 10 9 9 9 8 7 5 3 4 5 5 9 11 13 12 14 15
11 9 13 16 8 3 6 15 15 3 7 10 12 15 15 16 17 21 21 20 19 17 16 16 16 17 17 17 15 14 12 11 11 10 8 9 8 7 5 4 5 4 7 7 7 12 13 14 16
10 12 15 9 6 4 9 13 8 4 5 11 12 14 16 16 16 19 20 19 19 19 17 17 17 18 18 17 15 13 12 11 11 9 9 9 7 5 4 4 4 5 7 5 8 11 13 16 16
6 9 8 11 9 9 13 14 15 12 9 14 15 17 15 15 17 19 20 19 17 17 16 16 16 18 17 15 14 13 12 11 10 9 8 9 7 4 3 4 5 6 5 8 9 11 13 15 16
5 6 8 7 4 10 14 16 16 17 9 15 14 15 15 13 12 16 15 15 15 15 15 16 16 17 17 16 16 15 13 11 9 8 8 8 5 5 4 3 4 4 7 7 9 11 14 16 14
8 9 11 9 7 6 14 15 16 14 11 10 11 11 13 13 11 10 13 13 14 13 13 14 16 16 17 15 14 11 11 10 9 8 8 6 5 4 4 3 5 6 8 8 10 11 14 15 12
12 11 9 11 9 14 13 17 17 9 8 8 9 9 9 11 13 12 13 14 11 11 12 13 14 15 16 15 14 12 12 11 10 10 8 6 4 2 2 3 4 6 8 10 9 11 11 14 14
13 5 9 8 7 9 6 12 9 9 9 6 4 7 9 9 10 11 12 12 11 10 10 11 13 15 15 17 15 16 13 12 10 10 8 5 4 3 2 2 4 6 8 9 10 9 11 11 14
10 3 8 8 9 10 14 9 14 6 11 7 2 3 4 5 7 9 11 10 9 10 11 12 14 15 15 15 13 14 11 9 10 8 8 6 4 2 1 3 5 6 8 8 9 9 10 12 12
3 8 11 10 11 12 15 11 13 10 4 7 4 0 1 4 6 8 9 9 12 14 14 15 14 13 13 12 12 10 11 11 10 9 7 5 3 2 2 4 5 6 6 7 8 7 8 10 10
9 8 8 9 10 12 5 7 14 11 7 7 9 6 3 5 8 11 11 13 14 16 15 15 14 12 11 11 10 10 12 11 11 8 5 3 2 3 3 4 5 5 5 5 6 7 7 6 7
13 13 10 7 10 10 9 7 6 6 5 7 8 8 8 7 10 11 13 16 17 16 16 14 14 14 13 13 13 12 12 10 8 6 4 2 2 3 3 3 4 4 5 5 7 8 7 7 10
17 11 13 14 13 10 12 9 7 16 12 10 8 7 7 7 10 12 14 16 17 16 15 15 15 15 14 15 13 12 10 10 8 7 5 3 3 3 4 3 3 5 6 7 8 10 10 12 13
13 1 7 9 13 16 10 11 8 5 8 7 7 6 7 7 10 12 13 16 17 16 15 14 14 15 16 15 13 12 11 10 8 6 5 4 3 4 3 3 4 6 8 8 9 12 12 14 17
8 12 9 7 8 10 12 8 0 7 8 10 13 9 7 9 11 13 14 18 17 17 16 15 16 16 16 14 13 12 10 9 7 5 5 4 4 4 4 6 7 9 11 11 11 13 15 17 19
12 15 12 10 12 10 11 13 11 10 14 11 15 13 6 6 10 13 15 21 19 17 17 16 16 16 15 14 13 11 9 8 6 5 4 5 4 5 7 9 10 12 14 13 13 14 16 17 18
Wind_Direction
195 176 227 234 242 245 79 94 360 164 170 134 231 203 328 358 329 5 140 156 158 159 163 167 169 166 167 166 164 162 162 158 153 149 146 139 136 133 131 128 127 120 113 106 99 94 87 76 62
213 207 232 275 270 240 90 105 218 205 78 235 180 205 225 66 59 115 142 161 159 159 163 168 172 170 168 166 165 165 165 160 156 152 149 146 143 141 137 135 127 118 112 106 99 90 78 65 51
221 240 271 293 296 360 59 114 122 126 164 235 201 286 11 47 83 144 136 155 159 161 163 172 173 173 171 169 170 169 166 161 157 153 152 149 152 145 139 135 125 121 119 117 110 96 79 56 34
260 207 221 280 12 70 100 315 248 222 197 239 286 204 154 16 134 136 144 152 159 164 167 180 175 176 175 175 174 171 169 165 163 166 167 165 162 154 148 142 141 138 136 126 109 85 49 12 357
252 251 268 243 60 38 246 244 218 266 341 301 222 141 57 91 97 134 149 158 163 167 170 171 175 180 181 179 178 178 178 178 177 177 176 174 168 166 161 162 161 162 162 164 183 224 313 321 323
264 269 249 233 63 66 247 191 230 258 334 26 229 264 111 103 139 147 152 163 167 167 169 172 178 184 186 185 186 187 187 185 185 184 187 189 185 181 182 187 193 196 200 224 242 273 303 317 317
265 273 286 295 71 210 33 319 246 248 259 172 101 198 78 151 147 157 155 154 162 169 171 175 182 187 192 194 194 194 193 194 194 198 197 199 205 205 203 209 218 226 232 245 276 299 306 308 304
273 272 260 212 193 86 37 279 287 241 256 90 228 220 158 147 155 159 159 161 165 172 180 182 182 187 192 198 204 201 201 203 205 210 214 212 214 220 226 227 248 242 255 268 281 292 297 300 301
261 254 250 221 252 92 124 305 94 30 205 223 193 308 81 145 156 165 168 169 167 175 183 185 184 189 193 196 206 205 208 209 213 222 227 224 220 227 235 231 241 247 258 272 279 285 294 304 310
234 240 248 341 294 275 316 309 336 223 197 217 208 173 143 156 167 177 180 178 177 179 185 187 190 193 193 193 197 201 211 216 218 223 224 223 227 227 218 234 247 255 268 279 288 294 305 324 302
223 252 262 242 252 295 300 296 224 268 244 207 208 166 159 164 178 185 187 183 182 183 184 190 191 194 194 193 195 198 205 210 215 216 221 230 233 235 230 229 243 253 283 283 302 305 304 305 306
249 239 262 269 280 269 275 313 283 266 309 101 218 160 170 173 183 192 194 188 185 180 188 190 192 196 196 196 203 202 205 212 216 221 217 221 228 236 232 240 243 253 269 283 299 298 300 308 308
239 249 253 255 267 263 286 274 282 285 184 179 162 168 179 185 185 189 185 181 179 183 189 195 194 195 196 197 204 209 212 217 220 219 225 216 220 224 226 228 251 275 294 297 305 308 307 312 309
190 257 250 257 263 272 270 276 300 245 235 198 189 188 190 194 197 191 196 197 199 199 198 199 200 199 196 201 206 209 212 214 215 222 225 215 214 208 206 218 251 277 296 312 297 303 313 310 309
238 255 229 236 243 258 270 257 242 246 151 206 204 207 202 204 202 201 198 203 207 209 206 201 199 201 200 208 208 212 216 215 219 218 207 199 195 192 187 191 251 290 286 303 324 324 300 306 308
234 236 242 217 201 174 233 253 212 189 236 238 225 211 210 211 217 204 206 204 208 213 207 205 207 203 206 205 206 212 216 214 214 208 201 192 188 185 193 214 239 258 300 302 339 301 308 309 308
206 248 218 195 206 183 229 265 289 161 243 266 263 234 219 212 212 205 205 209 207 212 213 211 211 210 210 207 205 206 210 209 211 202 193 182 182 184 195 225 228 284 305 301 301 303 309 310 308
253 219 235 262 161 229 253 257 271 267 267 263 265 259 231 216 209 205 204 207 208 211 212 216 216 214 210 205 201 202 201 204 198 191 187 168 183 184 202 226 286 309 282 291 298 305 309 307 310
285 272 269 276 264 270 260 264 272 267 261 261 267 247 238 214 206 202 196 203 202 208 208 210 210 207 201 199 197 197 194 192 181 176 168 169 171 183 197 231 296 280 281 294 301 308 310 310 314
244 259 260 277 288 250 265 272 269 255 269 282 282 238 221 210 186 179 200 203 203 202 206 207 206 203 198 201 200 202 191 185 179 171 173 170 172 193 214 285 264 274 293 288 299 309 309 310 317
239 261 278 286 296 270 264 262 248 221 255 257 254 247 224 218 191 195 201 203 198 198 199 198 195 190 188 188 180 167 163 163 169 175 180 180 179 206 229 254 279 283 294 300 304 304 307 309 310
262 260 261 271 263 258 206 273 183 212 253 208 227 212 218 215 219 193 205 202 200 190 182 178 174 172 175 176 182 179 177 180 182 181 187 174 163 180 215 263 287 294 302 304 305 306 306 300 309
263 289 256 275 262 275 248 246 271 202 258 265 166 180 188 207 210 193 199 192 185 177 165 158 159 160 163 166 173 169 176 161 166 166 158 157 150 155 228 288 298 307 309 305 303 303 301 301 302
253 217 236 252 251 240 242 245 254 246 357 320 153 47 204 211 195 185 173 162 176 167 162 157 155 152 153 155 160 170 160 159 160 160 163 167 188 240 305 315 317 309 307 303 300 301 291 299 304
221 230 245 220 219 246 191 232 250 305 280 286 296 268 249 216 201 186 162 188 176 167 162 158 155 150 150 149 146 149 148 148 146 156 165 175 221 260 273 301 307 304 296 297 298 292 291 297 314
209 238 260 269 258 252 149 239 227 238 283 285 284 278 280 212 206 196 184 186 181 169 162 159 156 150 147 140 138 140 141 142 143 146 152 187 239 254 267 279 289 293 286 278 283 284 301 301 300
231 237 256 271 265 275 277 249 219 246 258 260 255 271 261 223 207 192 185 186 181 170 164 167 158 150 146 140 144 141 141 142 144 142 152 188 221 247 238 259 292 294 283 279 287 290 291 291 294
253 186 213 222 263 254 253 246 267 252 285 328 303 279 254 225 204 187 176 191 178 171 168 164 159 153 148 148 150 151 149 144 146 153 173 204 219 235 235 256 282 293 294 296 294 293 294 295 297
183 227 232 295 293 276 269 265 189 279 309 309 312 329 303 200 203 187 173 192 179 173 170 164 160 155 152 158 157 152 150 151 158 175 194 209 223 246 269 280 289 296 299 294 290 291 293 295 300
270 279 236 240 236 239 275 275 301 280 291 312 305 320 319 195 198 185 175 188 180 178 172 168 163 159 161 162 158 155 154 163 178 195 210 218 244 275 288 292 298 296 293 291 288 293 301 303 305